Content
SEND FEEDBACK

Daily
Averages
Monthly
Summary
United States of America

ASHEVILLE, NORTH CAROLINA


Home > North America > United States > North Carolina
Elevation: 2240 feet     Latitude: 35 36N     Longitude: 082 32W

WEATHER
 
SELECT A DAY
Number of Records: 226,157;   Date Range: 1/1/95 - 8/17/14
 
SHARE

PRINT THIS DATA

[ ← Previous Day ]
WEATHER ALMANAC - APRIL 3, 2013
[ Next Day → ]
[ °C ]   °F
Weather ElementAverageHighLow
Temperature48.1 °F57.9 °F (3:54 pm)39 °F (6:54 am)
Dewpoint17.5 °F27 °F (10:54 pm)14 °F (4:54 am)
Humidity30.4 %49 % (10:54 pm)20 % (5:54 pm)
Barometer30.19 in30.24 in (8:54 am)30.13 in (2:54 am)
Wind Speed6.7 mph13.8 mph (5:54 pm)
Weather ElementAverage
Visibility10 mi
Wind DirectionSSW (202.2 °)

Weather ElementTotal
Precipitation---
Heating Degree Days16.6 (Base 65)
Averaged from 23 records on April 3, 2013
WEATHER CONDITIONS BREAKOUT
WIND DIRECTION BREAKOUT
WEATHER BY HOUR - APRIL 3, 2013
[ °C ]   °F
Local TimeTemperatureDewpointHumidityBarometerVisibilityWind DirectionWind SpeedGust SpeedPrecipitationEventsConditions
1:54 AM44.1 °F18.0 °F35 %30.15 in10.0 miNorth (350°)9.2 mphMostly Cloudy
2:54 AM44.1 °F16.0 °F32 %30.13 in10.0 miNNW (340°)12.7 mphMostly Cloudy
3:54 AM43.0 °F16.0 °F34 %30.14 in10.0 miNorth (350°)4.6 mphOvercast
4:54 AM42.1 °F14.0 °F32 %30.14 in10.0 miNorth (360°)10.4 mphOvercast
5:54 AM39.9 °F14.0 °F35 %30.15 in10.0 miNNW (330°)12.7 mphMostly Cloudy
6:54 AM39.0 °F14.0 °F36 %30.18 in10.0 miNNW (340°)8.1 mphOvercast
7:54 AM39.0 °F14.0 °F36 %30.23 in10.0 miNorth (360°)5.8 mphMostly Cloudy
8:54 AM42.1 °F14.0 °F32 %30.24 in10.0 miNorth (10°)6.9 mphScattered Clouds
9:54 AM45.0 °F16.0 °F31 %30.22 in10.0 miNNW (340°)10.4 mphClear
10:54 AM46.9 °F15.1 °F28 %30.22 in10.0 miNNW (340°)5.8 mphClear
11:54 AM50.0 °F17.1 °F27 %30.22 in10.0 miVariable3.5 mphClear
12:54 PM52.0 °F19.0 °F27 %30.21 in10.0 miCalmClear
1:54 PM55.0 °F19.0 °F24 %30.17 in10.0 miVariable5.8 mphClear
2:54 PM57.0 °F18.0 °F22 %30.16 in10.0 miCalmClear
3:54 PM57.9 °F18.0 °F21 %30.16 in10.0 miVariable5.8 mphClear
4:54 PM57.9 °F18.0 °F21 %30.16 in10.0 miNorth (10°)5.8 mphClear
5:54 PM57.0 °F16.0 °F20 %30.16 in10.0 miNNW (340°)13.8 mphClear
6:54 PM54.0 °F15.1 °F22 %30.16 in10.0 miNNW (340°)12.7 mphClear
7:54 PM51.1 °F18.0 °F27 %30.19 in10.0 miNNW (330°)9.2 mphClear
8:54 PM50.0 °F19.0 °F29 %30.21 in10.0 miNNW (340°)6.9 mphClear
9:54 PM48.9 °F19.9 °F32 %30.22 in10.0 miCalmClear
10:54 PM45.0 °F27.0 °F49 %30.24 in10.0 miCalmClear
11:54 PM46.0 °F27.0 °F47 %30.24 in10.0 miSouth (170°)4.6 mphClear
Hourly data recorded from KAVL, located miles away from Asheville, North Carolina







STORIES FROM OUR PARTNERS